Weather History for Barrow, AK

Change the Weather History Date:

Tuesday, February 5, 2013

  Actual Average Record
Temperature  
Mean Temperature -21 °F -14 °F  
Max Temperature -17 °F -8 °F 29 °F (1989)
Min Temperature -24 °F -20 °F -49 °F (1968)
Degree Days  
Heating Degree Days 86 79  
Month to date heating degree days 410 395  
Since 1 July heating degree days 10060 11031  
Cooling Degree Days 0    
Month to date cooling degree days 0  
Year to date cooling degree days 0  
Moisture  
Dew Point -24 °F    
Average Humidity 0    
Maximum Humidity 0    
Minimum Humidity 0    
Precipitation  
Precipitation T in 0.00 in 0.12 in (1950)
Month to date precipitation T 0.02  
Year to date precipitation 0.06 0.15  
Snow  
Snow 0.10 in 0.10 in 1.20 in (1950)
Month to date snowfall 0.1 0.5  
Since 1 July snowfall 41.4 26.9  
Snow Depth 6.00 in    
Sea Level Pressure  
Sea Level Pressure 30.24 in    
Wind  
Wind Speed 6 mph (NE)    
Max Wind Speed 10 mph    
Max Gust Speed 13 mph    
Visibility 7 miles    
Events Snow    
T = Trace of Precipitation, MM = Missing Value Source: NWS Daily Summary

Daily Weather History Graph

Daily Weather History Graph

Search for Another Location

Airport:

Trip Planner

Search our weather history database for the weather conditions in past years. The results will help you decide how hot, cold, wet, or windy it might be!

Date:

Astronomy

Feb. 05, 2013 Rise Set
Actual Time 11:06 AM AKST 4:17 PM AKST
Civil Twilight 9:38 AM AKST 5:45 PM AKST
Nautical Twilight 8:17 AM AKST 7:06 PM AKST
Astronomical Twilight 7:02 AM AKST 8:22 PM AKST
Moon No Moon Rise No Moon Set
Length of Visible Light 8h 06m
Length of Day
5h 10m
Waning Crescent, 25% of the Moon is Illuminated
Feb 5
Waning Crescent
Feb 9
New
Feb 17
First Quarter
Feb 25
Full
Mar 4
Last Quarter

Hourly Weather History & Observations

Time (AKST) Temp. Windchill Dew Point Humidity Pressure Visibility Wind Dir Wind Speed Gust Speed Precip Events Conditions
12:53 AM -18.9 °F -35.8 °F -23.1 °F 81% 30.29 in 10.0 mi NNE 6.9 mph - N/A   Clear
1:53 AM -18.9 °F -37.2 °F -23.1 °F 81% 30.29 in 10.0 mi NE 8.1 mph - N/A   Clear
2:53 AM -18.9 °F -35.8 °F -24.0 °F 78% 30.28 in 10.0 mi NE 6.9 mph - N/A   Clear
3:53 AM -20.0 °F -38.6 °F -24.0 °F 82% 30.28 in 10.0 mi NE 8.1 mph - N/A   Clear
4:53 AM -18.0 °F -37.5 °F -23.1 °F 78% 30.27 in 8.0 mi NE 9.2 mph - N/A   Clear
5:04 AM -18.4 °F -37.9 °F -23.8 °F 76% 30.26 in 7.0 mi NE 9.2 mph - N/A   Scattered Clouds
5:53 AM -18.0 °F -36.1 °F -23.1 °F 78% 30.27 in 7.0 mi NNE 8.1 mph - N/A   Scattered Clouds
6:17 AM -18.4 °F -36.6 °F -23.8 °F 76% 30.26 in 10.0 mi NE 8.1 mph - N/A   Partly Cloudy
6:33 AM -18.4 °F -35.1 °F -23.8 °F 76% 30.26 in 5.0 mi NE 6.9 mph - N/A   Mostly Cloudy
6:53 AM -18.0 °F -34.7 °F -23.1 °F 78% 30.27 in 7.0 mi NE 6.9 mph - 0.00 in Snow Light Snow
7:53 AM -18.9 °F -37.2 °F -24.0 °F 78% 30.26 in 9.0 mi NE 8.1 mph - 0.00 in Snow Light Snow
8:00 AM -18.4 °F -33.4 °F -23.8 °F 76% 30.25 in 9.0 mi NE 5.8 mph - 0.00 in Snow Light Snow
8:53 AM -18.0 °F -36.1 °F -23.1 °F 78% 30.26 in 4.0 mi NE 8.1 mph - 0.00 in Snow Light Snow
9:00 AM -18.4 °F -36.6 °F -23.8 °F 76% 30.25 in 9.0 mi NE 8.1 mph - 0.00 in Snow Light Snow
9:53 AM -17.0 °F -36.1 °F -22.0 °F 78% 30.25 in 7.0 mi NNE 9.2 mph - 0.00 in   Scattered Clouds
10:53 AM -17.0 °F -34.8 °F -22.0 °F 78% 30.25 in 5.0 mi NNE 8.1 mph - N/A   Scattered Clouds
11:53 AM -18.0 °F -34.7 °F -22.0 °F 82% 30.25 in 9.0 mi NE 6.9 mph - N/A   Scattered Clouds
12:53 PM -18.0 °F -30.9 °F -23.1 °F 78% 30.25 in 4.0 mi NE 4.6 mph - N/A   Scattered Clouds
1:00 PM -18.4 °F -33.4 °F -23.8 °F 76% 30.24 in 5.0 mi NE 5.8 mph - N/A   Scattered Clouds
1:53 PM -18.0 °F -34.7 °F -23.1 °F 78% 30.25 in 7.0 mi NE 6.9 mph - N/A   Scattered Clouds
2:53 PM -17.0 °F -31.7 °F -22.0 °F 78% 30.24 in 10.0 mi NE 5.8 mph - N/A   Scattered Clouds
3:53 PM -18.0 °F -30.9 °F -23.1 °F 78% 30.23 in 10.0 mi NE 4.6 mph - N/A   Scattered Clouds
4:10 PM -18.4 °F -33.4 °F -23.8 °F 76% 30.22 in 1.2 mi NE 5.8 mph - N/A   Haze
4:11 PM -18.4 °F -33.4 °F -23.8 °F 76% 30.22 in 7.0 mi NE 5.8 mph - N/A   Scattered Clouds
4:53 PM -20.0 °F -33.3 °F -24.0 °F 82% 30.22 in 10.0 mi ENE 4.6 mph - N/A   Clear
5:53 PM -18.0 °F -33.0 °F -22.0 °F 82% 30.21 in 9.0 mi NE 5.8 mph - N/A   Partly Cloudy
6:53 PM -18.9 °F -34.0 °F -24.0 °F 78% 30.21 in 10.0 mi NE 5.8 mph - N/A   Partly Cloudy
7:53 PM -18.9 °F -34.0 °F -23.1 °F 81% 30.20 in 7.0 mi NE 5.8 mph - N/A   Partly Cloudy
8:53 PM -18.9 °F -35.8 °F -23.1 °F 81% 30.20 in 7.0 mi NE 6.9 mph - 0.00 in   Scattered Clouds
9:53 PM -18.9 °F -29.5 °F -25.1 °F 74% 30.19 in 9.0 mi NE 3.5 mph - N/A   Scattered Clouds
10:00 PM -18.4 °F -28.9 °F -23.8 °F 76% 30.18 in 4.0 mi NE 3.5 mph - N/A   Haze
10:53 PM -20.0 °F - -26.0 °F 74% 30.19 in 9.0 mi Calm Calm - N/A   Overcast
11:05 PM -20.2 °F - -25.6 °F 76% 30.18 in 5.0 mi Calm Calm - N/A   Scattered Clouds
11:30 PM -20.2 °F - -27.4 °F 69% 30.17 in 2.0 mi Calm Calm - 0.00 in Snow Light Snow
11:53 PM -23.1 °F - -29.0 °F 74% 30.18 in 3.0 mi Calm Calm - 0.00 in Snow Light Snow